SCP
0 0 0 0 0 0 0 0 0 0 0 0 0 0 0 0 0 0 0 0 0 0 0 0 0 0 0 0 0 0 0 0 0 0 0 0 -0 0 0 0 0 0 0
0 0 0 0 0 0 0 0 0 0 0 0 0 0 0 0 0 0 0 0 0 0 0 0 0 0 0 0 0 0 0 0 0 0 -0 -0 -0 0 0 0 0 0 0
0 0 0 0 0 0 0 0 0 0 0 0 0 0 0 0 0 0 0 0 0 0 0 0 0 0 0 0 0 0 0 0 0 0 0 0 0 0 0 0 0 0 0
0 0 0 0 0 0 0 0 0 0 0 0 0 0 0 0 0 0 0 0 0 0 0 0 0 0 0 0 0 0 0 0 0 0 0 0 0 0 0 0 0 0 0
0 0 0 0 0 0 0 0 0 0 0 0 0 0 0 0 0 0 0 0 0 0 0 0 0 0 0 0 0 0 0 0 0 0 0 0 0 0 0 0 0 0 0
0 0 0 0 0 0 0 0 0 0 0 0 0 0 0 0 0 0 0 0 0 0 0 0 0 0 0 0 0 0 0 0 0 0 0 0 0 0 0 0 0 0 0
0 0 0 0 0 0 0 0 0 0 0 0 0 0 0 0 0 0 0 0 0 0 0 0 0 0 0 0 0 0 0 0 0 0 0 0 0 0 0 0 0 0 0
0 0 0 0 0 0 0 0 0 0 0 0 0 0 0 0 0 0 0 0 0 0 0 0 0 0 0 0 0 0 0 0 0 0 0 0 0 0 0 0 0 0 0
0 0 0 0 0 0 0 0 0 0 0 0 0 0 0 0 0 0 0 0 0 0 0 0 0 0 0 0 0 0 0 0 0 0 0 0 0 0 0 0 0 0 0
0 0 0 0 0 0 0 0 0 0 0 0 0 0 0 0 0 0 0 0 0 0 0 0 0 0 0 0 0 0 0 0 0 0 0 0 0 0 0 0 0 0 0
0 0 0 0 0 0 0 0 0 0 0 0 0 0 0 0 0 0 0 0 0 0 0 0 0 0 0 0 0 0 0 0 0 0 0 0 0 0 0 0 0 0 0
0 0 0 0 0 0 0 0 0 0 0 0 0 0 0 0 0 0 0 0 0 0 0 0 0 0 0 0 0 0 0 0 0 0 0 0 0 0 0 0 0 0 0
0 0 0 0 0 0 0 0 0 0 0 0 0 0 0 0 0 0 0 0 0 0 0 0 0 0 0 0 0 0 0 0 0 0 0 0 0 0 0 0 0 0 0
0 0 0 0 0 0 0 0 0 0 0 0 0 0 0 0 0 0 0 0 0 0 0 0 0 0 0 0 0 0 0 0 0 0 0 0 0 0 0 0 0 0 0
0 0 0 0 0 0 0 0 0 0 0 0 0 0 0 0 0 0 0 0 0 0 0 0 0 0 0 0 0 0 0 0 0 0 0 0 0 0 0 0 0 0 0
0 0 0 0 0 0 0 0 0 0 0 0 0 0 0 0 0 0 0 0 0 0 0 0 0 0 0 0 0 0 0 0 0 0 0 0 0 0 0 0 0 0 0
0 0 0 0 0 0 0 0 0 0 0 0 0 0 0 0 0 0 0 0 0 0 0 0 0 0 0 0 0 0 0 0 0 0 0 0 0 0 0 0 0 0 0
0 0 0 0 0 0 0 0 0 0 0 0 0 0 0 0 0 0 0 0 0 0 0 0 0 0 0 0 0 0 0 0 0 0 0 0 0 0 0 0 0 0 0
0 0 0 0 0 0 0 0 0 0 0 0 0 0 0 0 0 0 0 0 0 0 0 0 0 0 0 0 0 0 0 0 0 0 0 0 0 0 0 0 0 0 0
0 0 0 0 0 0 0 0 0 0 0 0 0 0 0 0 0 0 0 0 0 0 0 0 0 0 0 0 0 0 0 0 0 0 0 0 0 0 0 0 0 0 0
0 0 0 0 0 0 0 0 0 0 0 0 0 0 0 0 0 0 0 0 0 0 0 0 0 0 0 0 0 0 0 0 0 0 0 0 -0 0 0 0 0 0 0
0 0 0 0 0 0 0 0 0 0 0 0 0 0 0 0 0 0 0 0 0 0 0 0 0 0 0 0 0 0 0 0 0 0 0 0 -0 0 0 0 0 0 0
0 0 0 0 0 0 0 0 0 0 0 0 0 0 0 0 0 0 0 0 0 0 0 0 0 0 0 0 0 0 0 0 0 0 0 0 0 0 0 0 0 0 0
0 0 0 0 0 0 0 0 0 0 0 0 0 0 0 0 0 0 0 0 0 0 0 0 0 0 0 0 0 0 0 0 0 0 0 0 0 0 0 0 0 0 0
0 0 0 0 0 0 0 0 0 0 0 0 0 0 0 0 0 0 0 0 0 0 0 0 0 0 0 0 0 0 0 0 0 0 0 0 0 0 0 0 0 0 0
0 0 0 0 0 0 0 0 0 0 0 0 0 0 0 0 0 0 0 0 0 0 0 0 0 0 0 0 0 0 0 0 0 0 0 0 0 0 0 0 0 0 0
Wind_Speed_500mb
75 78 75 76 75 79 79 74 70 67 62 61 56 46 33 23 17 14 17 18 19 22 24 25 27 29 31 33 38 39 39 41 52 67 77 74 70 59 55 94 79 57 77
78 72 80 78 84 83 84 78 73 71 68 62 56 46 32 28 21 15 17 19 21 25 25 26 27 28 29 31 34 37 39 44 50 60 62 48 78 39 104 59 78 93 65
89 82 79 84 88 90 91 84 78 73 69 63 60 53 40 34 26 19 17 21 24 25 27 26 28 29 30 30 30 33 39 43 48 52 44 28 31 95 67 107 83 36 78
75 79 81 87 92 91 91 84 75 71 68 65 66 59 44 35 27 23 18 23 25 26 28 28 28 28 28 27 27 30 35 44 50 56 54 52 47 30 74 98 50 85 74
63 73 79 82 87 85 88 83 75 71 69 69 68 60 51 41 35 29 22 25 27 27 28 28 28 27 26 25 26 28 35 43 50 55 62 65 58 49 54 95 117 103 76
42 56 62 71 82 86 86 81 76 74 71 70 68 65 57 47 42 34 28 28 29 30 29 29 28 25 24 23 26 31 39 45 52 59 63 68 57 60 60 72 99 98 105
30 39 55 70 78 86 88 82 77 75 72 71 71 68 60 53 47 41 35 31 32 32 30 29 26 24 23 23 28 35 42 49 57 62 67 70 56 60 64 74 95 96 103
30 38 49 59 70 79 80 81 78 75 70 70 73 70 61 58 52 47 40 34 35 34 31 29 26 25 22 24 32 38 45 53 59 65 70 65 62 61 63 69 79 99 100
34 37 42 49 59 69 74 76 75 71 68 72 72 70 64 62 57 49 44 39 37 34 32 29 27 24 22 27 34 40 48 56 62 69 73 63 64 59 61 62 63 73 96
32 37 44 48 53 56 59 64 63 59 62 66 67 66 65 62 58 54 47 41 38 36 32 30 27 24 24 29 36 42 50 59 65 71 69 64 59 54 53 55 59 62 76
31 34 40 46 53 58 58 56 55 57 57 58 60 64 66 64 61 56 49 43 40 37 33 31 27 24 25 31 36 44 52 60 67 69 65 63 54 53 55 55 58 65 72
38 38 39 43 56 60 61 58 57 55 52 53 58 63 65 65 63 58 51 45 41 38 34 31 27 25 25 30 36 44 52 60 67 67 63 61 51 53 52 54 55 58 49
32 38 41 46 52 61 62 58 56 54 50 55 60 62 65 66 63 58 52 47 43 39 36 32 27 26 26 29 35 44 53 59 65 64 61 57 46 52 50 51 51 50 45
29 35 43 52 55 58 61 60 54 49 48 56 60 63 65 64 61 55 52 49 45 40 36 32 28 27 26 28 34 44 52 57 60 59 57 48 44 48 44 44 45 42 43
30 40 50 56 63 66 70 73 63 51 50 56 63 65 62 61 59 58 56 51 46 39 36 34 30 27 25 27 34 42 51 56 60 59 55 43 35 39 32 35 41 38 44
47 56 61 62 68 74 77 82 77 67 61 59 64 64 63 63 62 60 57 53 46 42 39 36 32 27 24 26 33 42 49 54 59 63 56 42 32 34 27 26 31 36 44
81 82 75 74 77 79 76 76 76 75 67 66 67 65 65 66 64 61 59 55 47 43 39 38 33 27 25 26 30 39 46 51 55 59 58 45 33 32 32 25 29 33 37
76 81 83 83 80 79 85 82 83 84 73 73 72 68 69 67 64 63 61 53 48 44 41 40 34 29 28 25 28 35 43 47 52 56 57 49 37 28 32 31 33 36 38
47 57 68 79 81 78 76 81 89 85 76 76 76 72 70 68 66 68 60 54 48 45 42 39 37 32 28 25 27 31 38 44 48 52 50 43 36 24 27 27 30 30 29
47 40 37 44 49 59 66 74 80 85 80 77 77 71 71 68 69 63 58 53 48 43 42 42 40 36 31 27 25 28 35 39 44 46 48 42 35 23 26 25 20 26 32
54 48 39 41 43 48 47 55 67 84 78 74 68 70 70 67 63 59 57 52 49 45 45 43 43 39 34 30 26 25 31 36 42 43 43 39 30 25 24 26 20 20 25
62 56 51 41 40 34 39 44 60 66 70 69 68 68 67 65 63 60 56 55 52 49 47 46 45 42 40 33 27 25 28 32 37 39 39 40 34 28 24 20 18 16 21
68 63 55 51 40 36 30 28 42 57 60 60 62 62 63 64 63 62 61 60 56 53 50 49 46 45 42 36 30 25 26 28 33 34 34 37 34 29 25 20 15 12 14
68 75 68 57 51 40 32 29 28 29 37 51 59 61 63 63 63 63 61 60 58 54 52 51 50 45 46 39 33 27 26 26 27 32 30 31 31 30 27 21 13 9 6
66 67 67 65 59 50 34 31 28 28 32 38 47 55 61 65 66 65 63 62 59 56 51 45 45 43 48 40 35 31 27 25 24 26 26 26 25 24 23 18 9 8 11
61 64 61 61 61 59 50 35 31 35 32 37 45 52 59 64 66 66 65 64 63 61 55 52 51 46 45 43 40 35 31 26 22 22 20 18 16 15 17 17 11 12 13
Wind_Direction_500mb
238 235 229 224 220 217 217 219 220 217 213 209 210 215 222 228 241 268 290 283 287 294 302 315 315 315 315 319 325 327 329 332 334 332 330 333 335 328 321 320 310 311 309
237 232 226 224 220 218 219 220 222 220 217 214 216 221 222 229 236 262 288 281 284 294 309 316 312 310 317 322 324 327 333 337 343 340 340 334 338 326 321 320 314 314 316
238 229 222 220 219 219 220 220 221 220 219 216 216 220 220 228 232 252 283 290 288 297 303 306 308 311 316 320 325 331 333 336 337 338 340 335 319 325 327 317 315 319 313
239 235 224 219 218 220 222 223 223 221 219 219 220 225 229 236 237 251 277 294 288 290 300 304 304 306 312 318 323 328 333 331 331 331 330 321 308 313 317 315 304 308 309
240 234 226 223 221 219 222 224 225 222 222 222 223 227 229 233 238 250 273 292 286 288 294 298 299 303 311 314 320 326 325 326 325 324 322 318 316 296 272 290 305 306 304
236 232 229 223 221 220 220 221 222 223 224 224 225 227 230 233 239 249 267 288 286 284 289 293 295 301 305 308 314 320 324 323 321 320 318 317 311 301 289 282 293 297 301
222 216 217 218 219 218 217 218 220 223 224 226 227 229 231 235 239 246 260 279 282 280 284 287 291 294 295 300 309 317 321 320 320 320 321 321 314 303 293 287 292 295 299
205 206 210 211 214 216 217 216 219 222 225 227 228 229 231 235 239 244 256 272 278 276 280 283 285 285 288 297 307 316 320 320 321 322 321 323 309 305 296 292 296 298 299
203 203 208 209 210 211 214 216 219 224 227 228 228 229 232 235 239 245 253 266 273 273 276 279 280 280 283 295 307 317 321 322 324 325 322 323 317 307 301 301 301 294 297
215 208 209 207 204 206 208 213 218 222 225 226 228 231 235 239 240 244 252 262 268 268 271 272 274 273 282 297 309 317 323 325 326 323 327 328 321 311 307 311 309 305 295
222 216 210 206 201 200 202 206 213 220 226 230 232 235 238 238 240 244 250 259 262 263 266 268 268 267 282 299 311 320 326 326 325 327 332 327 321 320 325 325 320 311 303
231 224 214 211 209 207 208 211 216 221 229 235 237 239 239 239 241 243 248 255 257 258 261 262 261 266 282 299 313 321 326 327 326 334 330 328 330 333 331 332 326 318 311
226 226 221 218 214 213 213 216 222 226 233 238 240 240 239 238 239 242 246 252 250 252 254 256 256 264 281 300 314 322 327 328 331 334 331 332 334 331 335 340 335 326 318
223 224 228 230 227 226 224 224 229 233 241 242 242 240 238 238 240 242 244 245 244 247 250 252 250 261 281 300 314 322 327 331 333 333 334 332 336 330 337 347 337 329 324
238 235 234 234 234 235 232 233 237 243 249 247 244 242 239 238 237 238 239 237 240 243 245 247 247 259 280 301 314 323 328 332 333 339 337 329 328 326 339 346 339 333 330
256 244 243 246 249 244 239 237 241 250 249 247 246 241 236 234 234 234 233 231 235 238 241 243 245 257 277 298 313 323 330 333 336 337 339 331 315 324 331 339 332 330 324
279 278 266 257 261 251 242 241 245 253 254 252 245 239 234 232 231 229 226 228 232 236 239 240 242 252 273 292 310 321 329 333 337 337 337 337 316 314 315 322 319 322 327
284 283 283 282 279 268 258 256 253 253 252 248 241 235 231 229 227 224 223 225 229 234 236 237 241 250 267 285 303 318 327 333 337 340 339 336 324 315 314 316 323 329 331
313 300 293 287 286 279 272 264 258 248 244 242 239 233 228 225 222 220 221 224 227 230 234 236 242 248 261 278 296 314 324 331 336 341 340 340 326 314 315 316 331 329 336
342 328 315 310 297 289 276 267 260 244 237 242 238 232 227 223 220 219 220 223 226 230 232 237 242 249 255 268 284 304 318 327 333 343 344 342 336 321 306 312 329 341 353
345 337 325 323 319 310 290 265 256 240 241 247 237 226 222 220 217 218 219 221 225 229 233 237 241 247 252 261 273 293 312 324 332 343 346 345 347 341 310 307 312 338 352
348 349 349 344 341 329 307 283 258 247 244 245 228 218 216 214 213 215 217 221 225 229 232 236 238 246 248 252 263 283 303 318 331 343 348 348 3 346 333 318 320 334 335
350 347 351 353 355 349 331 302 273 255 248 236 222 216 214 213 213 216 219 223 226 230 233 236 239 243 245 248 255 271 292 310 325 339 350 353 2 357 345 329 329 323 322
342 348 350 348 345 349 352 328 292 273 254 228 221 216 215 216 217 221 225 229 232 233 235 235 239 237 242 243 250 260 278 297 317 334 348 353 3 7 359 348 341 336 10
331 338 341 340 336 332 339 343 325 284 255 249 239 228 222 222 223 226 231 235 239 242 245 247 246 240 239 242 246 253 266 284 306 323 340 352 4 5 6 7 17 43 64
323 324 324 327 331 328 324 334 325 305 268 250 251 241 234 232 231 232 236 240 243 243 244 243 238 236 236 232 239 243 253 265 281 305 323 331 356 18 15 25 36 76 84
Wind_Speed_850mb
75 78 75 76 75 79 79 74 70 67 62 61 56 46 33 23 17 14 17 18 19 22 24 25 27 29 31 33 38 39 39 41 52 67 77 74 70 59 55 94 79 57 77
78 72 80 78 84 83 84 78 73 71 68 62 56 46 32 28 21 15 17 19 21 25 25 26 27 28 29 31 34 37 39 44 50 60 62 48 78 39 104 59 78 93 65
89 82 79 84 88 90 91 84 78 73 69 63 60 53 40 34 26 19 17 21 24 25 27 26 28 29 30 30 30 33 39 43 48 52 44 28 31 95 67 107 83 36 78
75 79 81 87 92 91 91 84 75 71 68 65 66 59 44 35 27 23 18 23 25 26 28 28 28 28 28 27 27 30 35 44 50 56 54 52 47 30 74 98 50 85 74
63 73 79 82 87 85 88 83 75 71 69 69 68 60 51 41 35 29 22 25 27 27 28 28 28 27 26 25 26 28 35 43 50 55 62 65 58 49 54 95 117 103 76
42 56 62 71 82 86 86 81 76 74 71 70 68 65 57 47 42 34 28 28 29 30 29 29 28 25 24 23 26 31 39 45 52 59 63 68 57 60 60 72 99 98 105
30 39 55 70 78 86 88 82 77 75 72 71 71 68 60 53 47 41 35 31 32 32 30 29 26 24 23 23 28 35 42 49 57 62 67 70 56 60 64 74 95 96 103
30 38 49 59 70 79 80 81 78 75 70 70 73 70 61 58 52 47 40 34 35 34 31 29 26 25 22 24 32 38 45 53 59 65 70 65 62 61 63 69 79 99 100
34 37 42 49 59 69 74 76 75 71 68 72 72 70 64 62 57 49 44 39 37 34 32 29 27 24 22 27 34 40 48 56 62 69 73 63 64 59 61 62 63 73 96
32 37 44 48 53 56 59 64 63 59 62 66 67 66 65 62 58 54 47 41 38 36 32 30 27 24 24 29 36 42 50 59 65 71 69 64 59 54 53 55 59 62 76
31 34 40 46 53 58 58 56 55 57 57 58 60 64 66 64 61 56 49 43 40 37 33 31 27 24 25 31 36 44 52 60 67 69 65 63 54 53 55 55 58 65 72
38 38 39 43 56 60 61 58 57 55 52 53 58 63 65 65 63 58 51 45 41 38 34 31 27 25 25 30 36 44 52 60 67 67 63 61 51 53 52 54 55 58 49
32 38 41 46 52 61 62 58 56 54 50 55 60 62 65 66 63 58 52 47 43 39 36 32 27 26 26 29 35 44 53 59 65 64 61 57 46 52 50 51 51 50 45
29 35 43 52 55 58 61 60 54 49 48 56 60 63 65 64 61 55 52 49 45 40 36 32 28 27 26 28 34 44 52 57 60 59 57 48 44 48 44 44 45 42 43
30 40 50 56 63 66 70 73 63 51 50 56 63 65 62 61 59 58 56 51 46 39 36 34 30 27 25 27 34 42 51 56 60 59 55 43 35 39 32 35 41 38 44
47 56 61 62 68 74 77 82 77 67 61 59 64 64 63 63 62 60 57 53 46 42 39 36 32 27 24 26 33 42 49 54 59 63 56 42 32 34 27 26 31 36 44
81 82 75 74 77 79 76 76 76 75 67 66 67 65 65 66 64 61 59 55 47 43 39 38 33 27 25 26 30 39 46 51 55 59 58 45 33 32 32 25 29 33 37
76 81 83 83 80 79 85 82 83 84 73 73 72 68 69 67 64 63 61 53 48 44 41 40 34 29 28 25 28 35 43 47 52 56 57 49 37 28 32 31 33 36 38
47 57 68 79 81 78 76 81 89 85 76 76 76 72 70 68 66 68 60 54 48 45 42 39 37 32 28 25 27 31 38 44 48 52 50 43 36 24 27 27 30 30 29
47 40 37 44 49 59 66 74 80 85 80 77 77 71 71 68 69 63 58 53 48 43 42 42 40 36 31 27 25 28 35 39 44 46 48 42 35 23 26 25 20 26 32
54 48 39 41 43 48 47 55 67 84 78 74 68 70 70 67 63 59 57 52 49 45 45 43 43 39 34 30 26 25 31 36 42 43 43 39 30 25 24 26 20 20 25
62 56 51 41 40 34 39 44 60 66 70 69 68 68 67 65 63 60 56 55 52 49 47 46 45 42 40 33 27 25 28 32 37 39 39 40 34 28 24 20 18 16 21
68 63 55 51 40 36 30 28 42 57 60 60 62 62 63 64 63 62 61 60 56 53 50 49 46 45 42 36 30 25 26 28 33 34 34 37 34 29 25 20 15 12 14
68 75 68 57 51 40 32 29 28 29 37 51 59 61 63 63 63 63 61 60 58 54 52 51 50 45 46 39 33 27 26 26 27 32 30 31 31 30 27 21 13 9 6
66 67 67 65 59 50 34 31 28 28 32 38 47 55 61 65 66 65 63 62 59 56 51 45 45 43 48 40 35 31 27 25 24 26 26 26 25 24 23 18 9 8 11
61 64 61 61 61 59 50 35 31 35 32 37 45 52 59 64 66 66 65 64 63 61 55 52 51 46 45 43 40 35 31 26 22 22 20 18 16 15 17 17 11 12 13
Wind_Direction_850mb
238 235 229 224 220 217 217 219 220 217 213 209 210 215 222 228 241 268 290 283 287 294 302 315 315 315 315 319 325 327 329 332 334 332 330 333 335 328 321 320 310 311 309
237 232 226 224 220 218 219 220 222 220 217 214 216 221 222 229 236 262 288 281 284 294 309 316 312 310 317 322 324 327 333 337 343 340 340 334 338 326 321 320 314 314 316
238 229 222 220 219 219 220 220 221 220 219 216 216 220 220 228 232 252 283 290 288 297 303 306 308 311 316 320 325 331 333 336 337 338 340 335 319 325 327 317 315 319 313
239 235 224 219 218 220 222 223 223 221 219 219 220 225 229 236 237 251 277 294 288 290 300 304 304 306 312 318 323 328 333 331 331 331 330 321 308 313 317 315 304 308 309
240 234 226 223 221 219 222 224 225 222 222 222 223 227 229 233 238 250 273 292 286 288 294 298 299 303 311 314 320 326 325 326 325 324 322 318 316 296 272 290 305 306 304
236 232 229 223 221 220 220 221 222 223 224 224 225 227 230 233 239 249 267 288 286 284 289 293 295 301 305 308 314 320 324 323 321 320 318 317 311 301 289 282 293 297 301
222 216 217 218 219 218 217 218 220 223 224 226 227 229 231 235 239 246 260 279 282 280 284 287 291 294 295 300 309 317 321 320 320 320 321 321 314 303 293 287 292 295 299
205 206 210 211 214 216 217 216 219 222 225 227 228 229 231 235 239 244 256 272 278 276 280 283 285 285 288 297 307 316 320 320 321 322 321 323 309 305 296 292 296 298 299
203 203 208 209 210 211 214 216 219 224 227 228 228 229 232 235 239 245 253 266 273 273 276 279 280 280 283 295 307 317 321 322 324 325 322 323 317 307 301 301 301 294 297
215 208 209 207 204 206 208 213 218 222 225 226 228 231 235 239 240 244 252 262 268 268 271 272 274 273 282 297 309 317 323 325 326 323 327 328 321 311 307 311 309 305 295
222 216 210 206 201 200 202 206 213 220 226 230 232 235 238 238 240 244 250 259 262 263 266 268 268 267 282 299 311 320 326 326 325 327 332 327 321 320 325 325 320 311 303
231 224 214 211 209 207 208 211 216 221 229 235 237 239 239 239 241 243 248 255 257 258 261 262 261 266 282 299 313 321 326 327 326 334 330 328 330 333 331 332 326 318 311
226 226 221 218 214 213 213 216 222 226 233 238 240 240 239 238 239 242 246 252 250 252 254 256 256 264 281 300 314 322 327 328 331 334 331 332 334 331 335 340 335 326 318
223 224 228 230 227 226 224 224 229 233 241 242 242 240 238 238 240 242 244 245 244 247 250 252 250 261 281 300 314 322 327 331 333 333 334 332 336 330 337 347 337 329 324
238 235 234 234 234 235 232 233 237 243 249 247 244 242 239 238 237 238 239 237 240 243 245 247 247 259 280 301 314 323 328 332 333 339 337 329 328 326 339 346 339 333 330
256 244 243 246 249 244 239 237 241 250 249 247 246 241 236 234 234 234 233 231 235 238 241 243 245 257 277 298 313 323 330 333 336 337 339 331 315 324 331 339 332 330 324
279 278 266 257 261 251 242 241 245 253 254 252 245 239 234 232 231 229 226 228 232 236 239 240 242 252 273 292 310 321 329 333 337 337 337 337 316 314 315 322 319 322 327
284 283 283 282 279 268 258 256 253 253 252 248 241 235 231 229 227 224 223 225 229 234 236 237 241 250 267 285 303 318 327 333 337 340 339 336 324 315 314 316 323 329 331
313 300 293 287 286 279 272 264 258 248 244 242 239 233 228 225 222 220 221 224 227 230 234 236 242 248 261 278 296 314 324 331 336 341 340 340 326 314 315 316 331 329 336
342 328 315 310 297 289 276 267 260 244 237 242 238 232 227 223 220 219 220 223 226 230 232 237 242 249 255 268 284 304 318 327 333 343 344 342 336 321 306 312 329 341 353
345 337 325 323 319 310 290 265 256 240 241 247 237 226 222 220 217 218 219 221 225 229 233 237 241 247 252 261 273 293 312 324 332 343 346 345 347 341 310 307 312 338 352
348 349 349 344 341 329 307 283 258 247 244 245 228 218 216 214 213 215 217 221 225 229 232 236 238 246 248 252 263 283 303 318 331 343 348 348 3 346 333 318 320 334 335
350 347 351 353 355 349 331 302 273 255 248 236 222 216 214 213 213 216 219 223 226 230 233 236 239 243 245 248 255 271 292 310 325 339 350 353 2 357 345 329 329 323 322
342 348 350 348 345 349 352 328 292 273 254 228 221 216 215 216 217 221 225 229 232 233 235 235 239 237 242 243 250 260 278 297 317 334 348 353 3 7 359 348 341 336 10
331 338 341 340 336 332 339 343 325 284 255 249 239 228 222 222 223 226 231 235 239 242 245 247 246 240 239 242 246 253 266 284 306 323 340 352 4 5 6 7 17 43 64
323 324 324 327 331 328 324 334 325 305 268 250 251 241 234 232 231 232 236 240 243 243 244 243 238 236 236 232 239 243 253 265 281 305 323 331 356 18 15 25 36 76 84